Stündliche Wetter Holotky

Heute, 22 Juni, Dienstag

Zeit Temperatur Niederschläge Wind Luftdruck Luftfeuchtigkeit
00:00 +19°C° 0 mm 2 m/S 732 mmHg 93%
01:00 +19°C° 0 mm 2 m/S 732 mmHg 93%
02:00 +18°C° 0 mm 2 m/S 732 mmHg 94%
03:00 +18°C° 0 mm 2 m/S 732 mmHg 94%
04:00 +18°C° 0 mm 2 m/S 732 mmHg 94%
05:00 +18°C° 0 mm 2 m/S 732 mmHg 95%
06:00 +20°C° 0 mm 2 m/S 732 mmHg 89%
07:00 +21°C° 0 mm 3 m/S 732 mmHg 83%
08:00 +24°C° 0 mm 3 m/S 732 mmHg 76%
09:00 +25°C° 0 mm 3 m/S 732 mmHg 72%
10:00 +26°C° 0 mm 3 m/S 732 mmHg 67%
11:00 +27°C° 0 mm 3 m/S 732 mmHg 63%
12:00 +28°C° 0.1 mm 3 m/S 732 mmHg 62%
13:00 +29°C° 0.1 mm 2 m/S 732 mmHg 60%
14:00 +29°C° 0.1 mm 2 m/S 732 mmHg 59%
15:00 +29°C° 0.7 mm 2 m/S 732 mmHg 62%
16:00 +29°C° 0.7 mm 2 m/S 732 mmHg 65%
17:00 +29°C° 0.7 mm 2 m/S 732 mmHg 68%
18:00 +27°C° 0.1 mm 2 m/S 732 mmHg 74%
19:00 +26°C° 0.1 mm 2 m/S 732 mmHg 79%
20:00 +24°C° 0.1 mm 2 m/S 732 mmHg 84%
21:00 +24°C° 0 mm 2 m/S 732 mmHg 87%
22:00 +23°C° 0 mm 2 m/S 732 mmHg 89%
23:00 +21°C° 0 mm 2 m/S 733 mmHg 92%

Morgen, 23 Juni, Mittwoch

Zeit Temperatur Niederschläge Wind Luftdruck Luftfeuchtigkeit
00:00 +21°C° 0 mm 2 m/S 733 mmHg 91%
01:00 +20°C° 0 mm 2 m/S 733 mmHg 91%
02:00 +21°C° 0 mm 1 m/S 733 mmHg 90%
03:00 +21°C° 0 mm 1 m/S 733 mmHg 91%
04:00 +21°C° 0 mm 1 m/S 733 mmHg 92%
05:00 +21°C° 0 mm 1 m/S 733 mmHg 93%
06:00 +23°C° 0 mm 1 m/S 733 mmHg 88%
07:00 +24°C° 0 mm 2 m/S 734 mmHg 83%
08:00 +26°C° 0 mm 2 m/S 734 mmHg 79%
09:00 +27°C° 0.1 mm 2 m/S 734 mmHg 75%
10:00 +28°C° 0.1 mm 2 m/S 734 mmHg 70%
11:00 +29°C° 0.1 mm 2 m/S 734 mmHg 66%
12:00 +30°C° 0.2 mm 1 m/S 735 mmHg 63%
13:00 +30°C° 0.2 mm 1 m/S 735 mmHg 60%
14:00 +31°C° 0.2 mm 1 m/S 735 mmHg 57%
15:00 +31°C° 0.1 mm 1 m/S 735 mmHg 58%
16:00 +31°C° 0.1 mm 1 m/S 735 mmHg 58%
17:00 +31°C° 0.1 mm 1 m/S 735 mmHg 58%
18:00 +29°C° 0.3 mm 1 m/S 735 mmHg 65%
19:00 +28°C° 0.3 mm 1 m/S 735 mmHg 72%
20:00 +26°C° 0.3 mm 1 m/S 735 mmHg 79%
21:00 +25°C° 0 mm 1 m/S 735 mmHg 80%
22:00 +24°C° 0 mm 1 m/S 735 mmHg 82%
23:00 +21°C° 0 mm 0 m/S 735 mmHg 83%

übermorgen, 24 Juni, Donnerstag

Zeit Temperatur Niederschläge Wind Luftdruck Luftfeuchtigkeit
00:00 +21°C° 0.1 mm 0 m/S 735 mmHg 84%
01:00 +21°C° 0.1 mm 0 m/S 734 mmHg 85%
02:00 +20°C° 0.1 mm 0 m/S 734 mmHg 86%
03:00 +22°C° 0.1 mm 1 m/S 735 mmHg 87%
04:00 +22°C° 0.1 mm 1 m/S 735 mmHg 88%
05:00 +22°C° 0.1 mm 1 m/S 735 mmHg 88%
06:00 +23°C° 0 mm 1 m/S 735 mmHg 85%
07:00 +25°C° 0 mm 1 m/S 735 mmHg 82%
08:00 +26°C° 0 mm 1 m/S 735 mmHg 79%
09:00 +27°C° 0.2 mm 1 m/S 735 mmHg 74%
10:00 +28°C° 0.2 mm 1 m/S 735 mmHg 70%
11:00 +29°C° 0.2 mm 1 m/S 736 mmHg 66%
12:00 +30°C° 0 mm 1 m/S 736 mmHg 62%
13:00 +30°C° 0 mm 1 m/S 736 mmHg 59%
14:00 +31°C° 0 mm 1 m/S 735 mmHg 56%
15:00 +31°C° 0 mm 1 m/S 735 mmHg 57%
16:00 +31°C° 0 mm 1 m/S 735 mmHg 58%
17:00 +31°C° 0 mm 1 m/S 735 mmHg 59%
18:00 +29°C° 0.1 mm 1 m/S 735 mmHg 64%
19:00 +28°C° 0.1 mm 1 m/S 735 mmHg 70%
20:00 +26°C° 0.1 mm 1 m/S 735 mmHg 75%
21:00 +25°C° 0 mm 1 m/S 735 mmHg 78%
22:00 +24°C° 0 mm 1 m/S 735 mmHg 81%
23:00 +23°C° 0 mm 1 m/S 735 mmHg 84%

25 Juni, Freitag

Zeit Temperatur Niederschläge Wind Luftdruck Luftfeuchtigkeit
00:00 +23°C° 0 mm 1 m/S 734 mmHg 85%
01:00 +23°C° 0 mm 1 m/S 734 mmHg 86%
02:00 +22°C° 0 mm 1 m/S 734 mmHg 88%
03:00 +22°C° 0 mm 1 m/S 734 mmHg 88%
04:00 +22°C° 0 mm 1 m/S 734 mmHg 88%
05:00 +22°C° 0 mm 1 m/S 734 mmHg 88%
06:00 +24°C° 0 mm 2 m/S 734 mmHg 83%
07:00 +25°C° 0 mm 2 m/S 734 mmHg 78%
08:00 +27°C° 0 mm 2 m/S 734 mmHg 73%
09:00 +28°C° 0 mm 3 m/S 734 mmHg 68%
10:00 +29°C° 0 mm 3 m/S 734 mmHg 64%
11:00 +30°C° 0 mm 4 m/S 734 mmHg 59%
12:00 +32°C° 0 mm 4 m/S 734 mmHg 57%
13:00 +32°C° 0 mm 4 m/S 734 mmHg 55%
14:00 +33°C° 0 mm 4 m/S 734 mmHg 54%
15:00 +33°C° 0 mm 4 m/S 733 mmHg 57%
16:00 +31°C° 0 mm 3 m/S 733 mmHg 59%
17:00 +31°C° 0 mm 3 m/S 733 mmHg 62%
18:00 +29°C° 0.1 mm 3 m/S 732 mmHg 68%
19:00 +26°C° 0.1 mm 3 m/S 732 mmHg 75%
20:00 +24°C° 0.1 mm 3 m/S 732 mmHg 81%
21:00 +23°C° 0 mm 2 m/S 732 mmHg 79%
22:00 +21°C° 0 mm 2 m/S 732 mmHg 76%
23:00 +21°C° 0 mm 1 m/S 732 mmHg 74%

26 Juni, Samstag

Zeit Temperatur Niederschläge Wind Luftdruck Luftfeuchtigkeit
00:00 +20°C° 0.2 mm 1 m/S 732 mmHg 77%
01:00 +20°C° 0.2 mm 1 m/S 732 mmHg 80%
02:00 +19°C° 0.2 mm 1 m/S 732 mmHg 83%
03:00 +18°C° 0 mm 2 m/S 732 mmHg 87%
04:00 +18°C° 0 mm 2 m/S 733 mmHg 90%
05:00 +18°C° 0 mm 3 m/S 733 mmHg 93%
06:00 +19°C° 0 mm 4 m/S 733 mmHg 91%
07:00 +20°C° 0 mm 5 m/S 733 mmHg 89%
08:00 +21°C° 0 mm 5 m/S 734 mmHg 86%
09:00 +22°C° 0 mm 5 m/S 734 mmHg 80%
10:00 +23°C° 0 mm 5 m/S 734 mmHg 75%
11:00 +23°C° 0 mm 5 m/S 734 mmHg 69%
12:00 +25°C° 0 mm 5 m/S 734 mmHg 67%
13:00 +25°C° 0 mm 4 m/S 734 mmHg 66%
14:00 +25°C° 0 mm 4 m/S 734 mmHg 64%
15:00 +25°C° 0 mm 4 m/S 734 mmHg 65%
16:00 +25°C° 0 mm 3 m/S 734 mmHg 65%
17:00 +25°C° 0 mm 3 m/S 734 mmHg 65%
18:00 +24°C° 0 mm 3 m/S 734 mmHg 71%
19:00 +22°C° 0 mm 3 m/S 734 mmHg 77%
20:00 +20°C° 0 mm 3 m/S 734 mmHg 82%
21:00 +19°C° 0 mm 3 m/S 734 mmHg 84%
22:00 +18°C° 0 mm 3 m/S 734 mmHg 85%
23:00 +18°C° 0 mm 3 m/S 734 mmHg 86%

27 Juni, Sonntag

Zeit Temperatur Niederschläge Wind Luftdruck Luftfeuchtigkeit
00:00 +17°C° 0 mm 3 m/S 734 mmHg 86%
01:00 +17°C° 0 mm 3 m/S 734 mmHg 87%
02:00 +17°C° 0 mm 3 m/S 734 mmHg 87%
03:00 +17°C° 0.1 mm 3 m/S 734 mmHg 87%
04:00 +17°C° 0.1 mm 2 m/S 734 mmHg 88%
05:00 +17°C° 0.1 mm 2 m/S 734 mmHg 89%
06:00 +17°C° 0 mm 3 m/S 735 mmHg 86%
07:00 +18°C° 0 mm 3 m/S 735 mmHg 83%
08:00 +19°C° 0 mm 3 m/S 735 mmHg 81%
09:00 +19°C° 0 mm 3 m/S 735 mmHg 78%
10:00 +20°C° 0 mm 3 m/S 735 mmHg 76%
11:00 +20°C° 0 mm 3 m/S 735 mmHg 74%
12:00 +20°C° 0 mm 3 m/S 736 mmHg 75%
13:00 +20°C° 0 mm 2 m/S 736 mmHg 76%
14:00 +20°C° 0 mm 2 m/S 736 mmHg 77%
15:00 +20°C° 0 mm 2 m/S 735 mmHg 74%
16:00 +21°C° 0 mm 2 m/S 735 mmHg 71%
17:00 +21°C° 0 mm 2 m/S 735 mmHg 68%
18:00 +20°C° 0 mm 2 m/S 735 mmHg 73%
19:00 +19°C° 0 mm 2 m/S 735 mmHg 77%
20:00 +19°C° 0 mm 1 m/S 735 mmHg 82%
21:00 +18°C° 0 mm 1 m/S 735 mmHg 83%
22:00 +18°C° 0 mm 1 m/S 735 mmHg 85%
23:00 +16°C° 0 mm 1 m/S 735 mmHg 86%
Mehr zeigen

Wir brauchen deine Erlaubnis

Meteoprog und unser Service Anbieter werden persönliche Daten aufbewahren, so wie Cookies, Geräte Bezeichnung oder ähnliche Technologien von deinem Gerät und Prozess, so wie Persönliche Daten Inhalte und Werbungen, genauso wie social Media und den Verkehr zu analysieren.

  • Aufbewahrung und/oder Zugang zu deiner Geräte Informationen.

    Cookies, Geräte Bezeichnung oder andere Informationen, können aufbewahrt oder Zugang zu deinem Gerät erhalten, für den Grund, der oben angegeben wird.

  • Personalisierte Werbung und Inhalte, Messungen, Einblick in das Publikum und Produkt Entwicklung.

    Werbungen und Inhalte können personalisiert werden, basierend auf ein Profil. Mehr Daten können besser personalisierte Werbungen und Inhalte hinzufügen. Werbung und Inhalte können gezeigt und gemessen werden. Einblicke über das Publikum, welche die Werbung gesehen haben und den Inhalt, können abgeleitet werden. So wie Daten können genutzt werden, um es zu verbessern oder die Benutzer Erfahrung zu verbessern das System und die Software.

Wenn du “Ich stimme zu” klickst, erlaubst du uns, die Cookies zu benutzen die Geräte Bezeichnung, den Web oder ähnliche Technologien zu benutzen. Deine Settings, können in deinem Gerät bei deinem Browser geändert werden.

Für den bestimmten Zweck, berechtigten Interessen beruhen darauf, mehr als auf den Inhalt. Du kannst mehr darüber in unseren Privaten und Cookie Politik lesen.